This is the latest recevied weather packets stored in our database for station/object KB1FFS. If no packets are shown the sender has not sent any weather packets the latest 10 day(s).
| Time | Temp. | Humidity | Pressure | Rain* | Wind** | Luminosity | Snow |
|---|---|---|---|---|---|---|---|
| 1787867332 | 38.33° C | 32% | 1014.6 hPa | 0 mm | - | 499 W/m² | - |
| 1787867028 | 38.89° C | 32% | 1014.8 hPa | 0 mm | - | 519 W/m² | - |
| 1787866723 | 38.33° C | 33% | 1014.9 hPa | 0 mm | - | 539 W/m² | - |
| 1787866422 | 38.33° C | 33% | 1014.9 hPa | 0 mm | - | 562 W/m² | - |
| 1787866117 | 38.33° C | 32% | 1015.2 hPa | 0 mm | - | 564 W/m² | - |
| 1787865817 | 38.33° C | 33% | 1015.2 hPa | 0 mm | - | 590 W/m² | - |
| 1787865512 | 38.89° C | 31% | 1015.2 hPa | 0 mm | - | 174 W/m² | - |
| 1787865207 | 38.89° C | 33% | 1015.1 hPa | 0 mm | - | 636 W/m² | - |
| 1787864903 | 38.89° C | 34% | 1015.2 hPa | 0 mm | - | 599 W/m² | - |
| 1787864598 | 38.33° C | 33% | 1015.3 hPa | 0 mm | - | 613 W/m² | - |
| 1787864292 | 38.33° C | 34% | 1015.4 hPa | 0 mm | - | 601 W/m² | - |
| 1787863987 | 37.78° C | 39% | 1015.4 hPa | 0 mm | - | 572 W/m² | - |
| 1787863685 | 38.33° C | 36% | 1015.3 hPa | 0 mm | - | 622 W/m² | - |
| 1787863384 | 37.78° C | 36% | 1015.7 hPa | 0 mm | - | 580 W/m² | - |
| 1787863080 | 37.78° C | 37% | 1015.8 hPa | 0 mm | - | 526 W/m² | - |
| 1787862775 | 37.22° C | 37% | 1015.9 hPa | 0 mm | - | 351 W/m² | - |
| 1787862475 | 36.67° C | 38% | 1015.9 hPa | 0 mm | - | 658 W/m² | - |
| 1787862170 | 36.67° C | 37% | 1015.8 hPa | 0 mm | - | 361 W/m² | - |
| 1787861865 | 37.22° C | 36% | 1015.8 hPa | 0 mm | - | 325 W/m² | - |
| 1787861565 | 37.22° C | 38% | 1015.8 hPa | 0 mm | - | 554 W/m² | - |
| 1787861259 | 36.67° C | 38% | 1015.8 hPa | 0 mm | - | 557 W/m² | - |
| 1787860958 | 37.22° C | 38% | 1015.9 hPa | 0 mm | - | 528 W/m² | - |
| 1787860653 | 36.67° C | 39% | 1015.9 hPa | 0 mm | - | 544 W/m² | - |
| 1787860348 | 36.67° C | 38% | 1015.9 hPa | 0 mm | - | 330 W/m² | - |
| 1787860043 | 36.67° C | 38% | 1015.9 hPa | 0 mm | - | 311 W/m² | - |
* Rain latest hour (hover to see other rain measurements)
** Current wind speed in m/s (hover to see current wind gust speed)